Weather History for Crane Lake, MN

Change the Weather History Date:

Tuesday, January 1, 2013

  Actual Average Record
Temperature  
Mean Temperature -4 °F -  
Max Temperature 12 °F 15 °F 30 °F (2007)
Min Temperature -20 °F 0 °F -38 °F (2014)
Degree Days  
Heating Degree Days 69    
Moisture  
Dew Point -6 °F    
Average Humidity 83    
Maximum Humidity 92    
Minimum Humidity 73    
Precipitation  
Precipitation 0.00 in - - ()
Sea Level Pressure  
Sea Level Pressure 30.04 in    
Wind  
Wind Speed 1 mph (SSW)    
Max Wind Speed 10 mph    
Max Gust Speed -    
Visibility 8 miles    
Events Snow    
Averages and records for this station are not official NWS values.
T = Trace of Precipitation, MM = Missing Value Source: NWS Daily Summary

Daily Weather History Graph

Daily Weather History Graph

Search for Another Location

Airport:

Trip Planner

Search our weather history database for the weather conditions in past years. The results will help you decide how hot, cold, wet, or windy it might be!

Date:

Astronomy

Jan. 01, 2013 Rise Set
Actual Time 8:00 AM CST 4:26 PM CST
Civil Twilight 7:24 AM CST 5:03 PM CST
Nautical Twilight 6:44 AM CST 5:42 PM CST
Astronomical Twilight 6:06 AM CST 6:20 PM CST
Moon 9:21 PM CST (1/1) 9:52 AM CST (1/1)
Length of Visible Light 9h 38m
Length of Day
8h 25m
Waning Gibbous, 83% of the Moon is Illuminated
Jan 1
Waning Gibbous
Jan 4
Last Quarter
Jan 11
New
Jan 18
First Quarter
Jan 26
Full

Hourly Weather History & Observations

Time (CST) Temp. Windchill Dew Point Humidity Pressure Visibility Wind Dir Wind Speed Gust Speed Precip Events Conditions
12:02 AM -18.4 °F - -23.8 °F 76% 30.18 in 10.0 mi Calm Calm - N/A   Clear
12:22 AM -18.4 °F - -22.0 °F 84% 30.17 in 10.0 mi Calm Calm - N/A   Clear
12:42 AM -18.4 °F - -22.0 °F 84% 30.17 in 10.0 mi Calm Calm - N/A   Clear
1:02 AM -18.4 °F - -22.0 °F 84% 30.17 in 10.0 mi Calm Calm - N/A   Clear
1:22 AM -18.4 °F - -23.8 °F 76% 30.17 in 10.0 mi Calm Calm - N/A   Clear
1:42 AM -18.4 °F - -23.8 °F 76% 30.17 in 10.0 mi Calm Calm - N/A   Clear
2:02 AM -18.4 °F - -23.8 °F 76% 30.17 in 10.0 mi Calm Calm - N/A   Clear
2:22 AM -18.4 °F - -23.8 °F 76% 30.18 in 10.0 mi Calm Calm - N/A   Clear
2:42 AM -18.4 °F - -23.8 °F 76% 30.18 in 10.0 mi Calm Calm - N/A   Clear
3:02 AM -18.4 °F - -23.8 °F 76% 30.17 in 10.0 mi Calm Calm - N/A   Clear
3:22 AM -18.4 °F - -23.8 °F 76% 30.17 in 10.0 mi Calm Calm - N/A   Clear
3:42 AM -20.2 °F - -25.6 °F 76% 30.17 in 10.0 mi Calm Calm - N/A   Clear
4:02 AM -20.2 °F - -25.6 °F 76% 30.17 in 10.0 mi Calm Calm - N/A   Clear
4:22 AM -20.2 °F - -25.6 °F 76% 30.17 in 10.0 mi Calm Calm - N/A   Clear
4:42 AM -20.2 °F - -25.6 °F 76% 30.15 in 10.0 mi Calm Calm - N/A   Clear
5:02 AM -20.2 °F - -25.6 °F 76% 30.14 in 10.0 mi Calm Calm - N/A   Clear
5:22 AM -20.2 °F - -25.6 °F 76% 30.14 in 10.0 mi Calm Calm - N/A   Clear
5:42 AM -20.2 °F - -25.6 °F 76% 30.14 in 10.0 mi Calm Calm - N/A   Clear
6:02 AM -20.2 °F - -25.6 °F 76% 30.13 in 10.0 mi Calm Calm - N/A   Clear
6:22 AM -20.2 °F - -25.6 °F 76% 30.13 in 10.0 mi Calm Calm - N/A   Clear
6:42 AM -20.2 °F - -25.6 °F 76% 30.12 in 10.0 mi Calm Calm - N/A   Clear
7:02 AM -20.2 °F - -25.6 °F 76% 30.11 in 10.0 mi Calm Calm - N/A   Clear
7:22 AM -20.2 °F - -25.6 °F 76% 30.11 in 10.0 mi Calm Calm - N/A   Clear
7:42 AM -20.2 °F - -25.6 °F 76% 30.10 in 10.0 mi Calm Calm - N/A   Clear
8:02 AM -18.4 °F - -23.8 °F 76% 30.10 in 10.0 mi Calm Calm - N/A   Clear
8:22 AM -18.4 °F - -22.0 °F 84% 30.10 in 10.0 mi Calm Calm - N/A   Clear
8:42 AM -16.6 °F - -20.2 °F 84% 30.10 in 10.0 mi Calm Calm - N/A   Clear
9:02 AM -13.0 °F - -16.6 °F 84% 30.09 in 10.0 mi Calm Calm - N/A   Clear
9:22 AM -9.4 °F - -11.2 °F 92% 30.08 in 10.0 mi Calm Calm - N/A   Clear
9:42 AM -5.8 °F -14.5 °F -7.6 °F 92% 30.08 in 10.0 mi SW 3.5 mph - N/A   Clear
10:02 AM -0.4 °F -10.4 °F -4.0 °F 85% 30.07 in 10.0 mi SW 4.6 mph - N/A   Clear
10:22 AM 1.4 °F -8.3 °F -2.2 °F 85% 30.06 in 10.0 mi SSW 4.6 mph - N/A   Clear
10:42 AM 3.2 °F -9.1 °F -0.4 °F 85% 30.05 in 10.0 mi SSW 6.9 mph - N/A   Clear
11:02 AM 3.2 °F -12.2 °F -2.2 °F 78% 30.04 in 10.0 mi SW 10.4 mph - N/A   Clear
11:22 AM 6.8 °F -0.1 °F 1.4 °F 79% 30.03 in 10.0 mi West 3.5 mph - N/A   Clear
11:42 AM 8.6 °F -2.6 °F 3.2 °F 79% 30.02 in 10.0 mi WSW 6.9 mph - N/A   Clear
12:02 PM 10.4 °F 2.2 °F 5.0 °F 79% 30.01 in 10.0 mi SSW 4.6 mph - N/A   Clear
12:22 PM 8.6 °F 0.1 °F 1.4 °F 73% 30.00 in 10.0 mi South 4.6 mph - N/A   Mostly Cloudy
12:42 PM 6.8 °F -4.8 °F 1.4 °F 79% 30.00 in 4.0 mi SSW 6.9 mph - N/A Snow Light Snow
1:02 PM 6.8 °F -3.5 °F 1.4 °F 79% 29.98 in 3.0 mi SSW 5.8 mph - N/A Snow Light Snow
1:22 PM 6.8 °F -3.5 °F 1.4 °F 79% 29.98 in 3.0 mi SSW 5.8 mph - N/A Snow Light Snow
1:42 PM 8.6 °F 0.1 °F 1.4 °F 73% 29.97 in 3.0 mi South 4.6 mph - N/A Snow Light Snow
2:02 PM 8.6 °F 0.1 °F 3.2 °F 79% 29.97 in 2.5 mi SSW 4.6 mph - N/A Snow Light Snow
2:22 PM 8.6 °F 2.0 °F 3.2 °F 79% 29.97 in 2.5 mi WSW 3.5 mph - N/A Snow Light Snow
2:42 PM 8.6 °F 2.0 °F 3.2 °F 79% 29.97 in 1.8 mi SSW 3.5 mph - N/A Snow Light Snow
3:02 PM 8.6 °F 0.1 °F 3.2 °F 79% 29.98 in 1.5 mi SSW 4.6 mph - N/A Snow Light Snow
3:22 PM 8.6 °F - 3.2 °F 79% 29.97 in 1.5 mi Calm Calm - N/A Snow Light Snow
3:42 PM 8.6 °F 2.0 °F 5.0 °F 85% 29.97 in 2.0 mi South 3.5 mph - N/A Snow Light Snow
4:02 PM 8.6 °F - 5.0 °F 85% 29.97 in 2.0 mi Calm Calm - N/A Snow Light Snow
4:22 PM 8.6 °F 2.0 °F 5.0 °F 85% 29.97 in 2.5 mi South 3.5 mph - N/A Snow Light Snow
4:42 PM 8.6 °F - 6.8 °F 92% 29.97 in 4.0 mi Calm Calm - N/A Snow Light Snow
5:02 PM 8.6 °F - 6.8 °F 92% 29.97 in 4.0 mi Calm Calm - N/A Snow Light Snow
5:22 PM 10.4 °F - 6.8 °F 85% 29.97 in 4.0 mi Calm Calm - N/A Snow Light Snow
5:42 PM 10.4 °F 4.0 °F 6.8 °F 85% 29.97 in 7.0 mi South 3.5 mph - N/A Snow Light Snow
6:02 PM 10.4 °F 2.2 °F 8.6 °F 92% 29.96 in 10.0 mi South 4.6 mph - N/A Snow Light Snow
6:22 PM 10.4 °F 2.2 °F 8.6 °F 92% 29.96 in 10.0 mi South 4.6 mph - N/A   Overcast
6:42 PM 10.4 °F 0.8 °F 8.6 °F 92% 29.95 in 10.0 mi South 5.8 mph - N/A   Overcast
7:02 PM 10.4 °F -0.4 °F 8.6 °F 92% 29.95 in 10.0 mi South 6.9 mph - N/A   Overcast
7:22 PM 10.4 °F 2.2 °F 8.6 °F 92% 29.95 in 10.0 mi SSW 4.6 mph - N/A   Overcast
7:42 PM 10.4 °F 2.2 °F 8.6 °F 92% 29.95 in 10.0 mi SSW 4.6 mph - N/A   Overcast
8:02 PM 10.4 °F - 8.6 °F 92% 29.94 in 10.0 mi Calm Calm - N/A   Overcast
8:22 PM 10.4 °F 2.2 °F 8.6 °F 92% 29.93 in 10.0 mi South 4.6 mph - N/A   Overcast
8:42 PM 10.4 °F 2.2 °F 8.6 °F 92% 29.92 in 10.0 mi SSE 4.6 mph - N/A Snow Light Snow
9:02 PM 12.2 °F - 8.6 °F 85% 29.92 in 10.0 mi Calm Calm - N/A   Overcast
9:22 PM 12.2 °F - 10.4 °F 92% 29.92 in 10.0 mi Calm Calm - N/A   Overcast
9:42 PM 12.2 °F 6.1 °F 10.4 °F 92% 29.92 in 10.0 mi South 3.5 mph - N/A   Overcast
10:02 PM 12.2 °F 4.3 °F 10.4 °F 92% 29.91 in 10.0 mi South 4.6 mph - N/A   Overcast
10:22 PM 12.2 °F 6.1 °F 10.4 °F 92% 29.91 in 10.0 mi South 3.5 mph - N/A   Overcast
10:42 PM 12.2 °F 6.1 °F 10.4 °F 92% 29.91 in 10.0 mi South 3.5 mph - N/A   Overcast
11:02 PM 12.2 °F 4.3 °F 10.4 °F 92% 29.91 in 10.0 mi South 4.6 mph - N/A   Overcast
11:22 PM 12.2 °F 4.3 °F 10.4 °F 92% 29.90 in 10.0 mi SSE 4.6 mph - N/A   Overcast
11:42 PM 12.2 °F 4.3 °F 10.4 °F 92% 29.90 in 7.0 mi SSE 4.6 mph - N/A   Overcast